User: anonymous   Login
Location: Seminole
(32.7190°N, 102.6440°W)
Time: 06:53:46
(UTC-05:00)
Language:

Meteor 2-10 - Orbit

View from above orbital plane
View from above orbital plane
View from above satellite
View from above satellite

Ground track
Ground track

The orbit data is extracted from the following two-line orbital elements,

1 14452U 83109A   15118.18423825  .00000133  00000-0  47660-4 0  9990
2 14452 081.1606 144.5806 0091781 125.9991 234.9742 14.26333204637689
Epoch (UTC): 28 April 2015 04:25:18
Eccentricity: 0.0091781
inclination: 81.1606°
perigee height: 738 km
apogee height: 870 km
right ascension of ascending node: 144.5806°
argument of perigee: 125.9991°
revolutions per day: 14.26333204
mean anomaly at epoch: 234.9742°
orbit number at epoch: 63768

The dashed part of the orbit path shows where the satellite is in the earth's shadow,  

DLR